Terminal Aerodrome Forecast
Issued by NWS

Home | Current Version | Previous Version | Text Only | Print | Product List | Glossary On
Versions: 1 2 3 4 5 6 7 8 9 10 11 12
000
FTAK31 PANC 311140
TAFAVD
TAF
PAVD 311140Z 3112/0112 VRB03KT P6SM OVC100
     FM312000 VRB03KT P6SM -SHSN SCT030 OVC050
      AMD LTD TO CLD VIS AND WIND=

USA.gov is the U.S. government's official web portal to all federal, state and local government web resources and services.